Weather History for Miles City, MT

Change the Weather History Date:

Sunday, February 17, 2013

  Actual Average Record
Temperature  
Mean Temperature 37 °F 25 °F  
Max Temperature 45 °F 36 °F 62 °F (1995)
Min Temperature 29 °F 14 °F -28 °F (1938)
Degree Days  
Heating Degree Days 28 40  
Month to date heating degree days 526 716  
Since 1 July heating degree days 4806 5312  
Cooling Degree Days 0 0  
Month to date cooling degree days 0 0  
Year to date cooling degree days 0 0  
Moisture  
Dew Point 28 °F    
Average Humidity 69    
Maximum Humidity 89    
Minimum Humidity 49    
Precipitation  
Precipitation T in 0.01 in 0.43 in (1970)
Month to date precipitation T 0.12  
Year to date precipitation 0.18 0.44  
Sea Level Pressure  
Sea Level Pressure 29.72 in    
Wind  
Wind Speed 16 mph (WNW)    
Max Wind Speed 32 mph    
Max Gust Speed 39 mph    
Visibility 8 miles    
Events Snow    
T = Trace of Precipitation, MM = Missing Value Source: NWS Daily Summary

Daily Weather History Graph

Daily Weather History Graph

Search for Another Location

Airport:

Trip Planner

Search our weather history database for the weather conditions in past years. The results will help you decide how hot, cold, wet, or windy it might be!

Date:

Astronomy

Feb. 17, 2013 Rise Set
Actual Time 7:03 AM MST 5:32 PM MST
Civil Twilight 6:32 AM MST 6:03 PM MST
Nautical Twilight 5:57 AM MST 6:38 PM MST
Astronomical Twilight 5:22 AM MST 7:13 PM MST
Moon 10:30 AM MST (2/17) 12:57 AM MST (2/17)
Length of Visible Light 11h 31m
Length of Day
10h 29m
Waxing Crescent, 49% of the Moon is Illuminated
Feb 17
Waxing Crescent
Feb 17
First Quarter
Feb 25
Full
Mar 4
Last Quarter
Mar 11
New

Hourly Weather History & Observations

Time (MST) Temp. Windchill Dew Point Humidity Pressure Visibility Wind Dir Wind Speed Gust Speed Precip Events Conditions
12:53 AM 33.1 °F 26.9 °F 25.0 °F 72% 29.70 in 10.0 mi SSE 6.9 mph - N/A   Clear
1:53 AM 34.0 °F 28.0 °F 25.0 °F 70% 29.67 in 10.0 mi SSW 6.9 mph - N/A   Clear
2:53 AM 32.0 °F 24.8 °F 25.0 °F 75% 29.65 in 10.0 mi SSE 8.1 mph - N/A   Clear
3:53 AM 33.1 °F 30.0 °F 25.0 °F 72% 29.62 in 10.0 mi SSW 3.5 mph - N/A   Clear
4:53 AM 32.0 °F 24.2 °F 26.1 °F 79% 29.61 in 10.0 mi South 9.2 mph - N/A   Partly Cloudy
6:53 AM 36.0 °F 29.0 °F 25.0 °F 64% 29.62 in 10.0 mi West 9.2 mph - N/A   Clear
7:53 AM 37.0 °F 33.3 °F 26.1 °F 65% 29.63 in 10.0 mi West 4.6 mph - N/A   Mostly Cloudy
8:53 AM 41.0 °F 33.1 °F 28.0 °F 60% 29.64 in 10.0 mi West 15.0 mph 27.6 mph N/A   Overcast
9:53 AM 42.1 °F 32.8 °F 28.0 °F 58% 29.64 in 10.0 mi WNW 21.9 mph 26.5 mph N/A   Overcast
11:53 AM 43.0 °F 33.3 °F 27.0 °F 53% 29.64 in 10.0 mi WNW 25.3 mph 35.7 mph N/A   Mostly Cloudy
12:53 PM 41.0 °F 30.9 °F 28.0 °F 60% 29.65 in 10.0 mi WNW 24.2 mph 35.7 mph N/A   Overcast
1:21 PM 39.2 °F 28.5 °F 28.4 °F 65% 29.61 in 10.0 mi NW 24.2 mph 29.9 mph N/A   Overcast
1:53 PM 37.9 °F 26.8 °F 28.0 °F 68% 29.68 in 10.0 mi NW 24.2 mph 31.1 mph N/A   Overcast
2:53 PM 37.9 °F 27.9 °F 28.9 °F 70% 29.70 in 10.0 mi WNW 19.6 mph 28.8 mph N/A   Overcast
3:31 PM 35.6 °F 24.5 °F 30.2 °F 81% 29.67 in 4.0 mi NW 20.7 mph 27.6 mph 0.00 in Snow Light Snow
3:39 PM 33.8 °F 22.2 °F 30.2 °F 87% 29.67 in 1.8 mi NW 20.7 mph 32.2 mph 0.00 in Snow Light Snow
3:53 PM 34.0 °F 22.4 °F 30.9 °F 89% 29.73 in 1.8 mi WNW 20.7 mph 26.5 mph 0.00 in Snow Light Snow
4:00 PM 33.8 °F 22.8 °F 30.2 °F 87% 29.68 in 2.0 mi WNW 18.4 mph - 0.00 in Snow Light Snow
4:07 PM 33.8 °F 22.5 °F 32.0 °F 93% 29.68 in 2.5 mi NW 19.6 mph 27.6 mph 0.00 in Snow Light Snow
4:53 PM 34.0 °F 21.8 °F 30.9 °F 89% 29.77 in 1.8 mi WNW 23.0 mph 31.1 mph 0.00 in Snow Light Snow
5:02 PM 33.8 °F 21.0 °F 30.2 °F 87% 29.71 in 3.0 mi NW 25.3 mph 32.2 mph 0.00 in Snow Light Snow
5:35 PM 33.8 °F 21.6 °F 30.2 °F 87% 29.73 in 3.0 mi NW 23.0 mph 29.9 mph 0.00 in Snow Light Snow
6:14 PM 33.8 °F 22.2 °F 30.2 °F 87% 29.76 in 9.0 mi NW 20.7 mph 28.8 mph 0.00 in   Overcast
6:53 PM 34.0 °F 22.7 °F 30.0 °F 85% 29.84 in 10.0 mi NW 19.6 mph 27.6 mph 0.00 in   Overcast
7:50 PM 33.8 °F 23.5 °F 28.4 °F 81% 29.81 in 10.0 mi NW 16.1 mph 25.3 mph 0.00 in   Overcast
7:53 PM 33.1 °F 23.0 °F 28.0 °F 82% 29.88 in 10.0 mi NW 15.0 mph - 0.00 in   Overcast
8:19 PM 33.8 °F 24.3 °F 28.4 °F 81% 29.82 in 10.0 mi NW 13.8 mph 20.7 mph N/A   Overcast
8:53 PM 32.0 °F 20.5 °F 27.0 °F 82% 29.89 in 10.0 mi NNW 18.4 mph 26.5 mph N/A   Overcast
10:53 PM 30.9 °F 19.8 °F 24.1 °F 76% 29.95 in 10.0 mi NW 16.1 mph - N/A   Overcast
11:53 PM 28.9 °F 15.8 °F 21.9 °F 75% 29.99 in 10.0 mi NNW 20.7 mph 28.8 mph N/A   Overcast